TimeMDT,TemperatureF,Dew PointF,Humidity,Sea Level PressureIn,VisibilityMPH,Wind Direction,Wind SpeedMPH,Gust SpeedMPH,PrecipitationIn,Events,Conditions,WindDirDegrees,DateUTC
12:55 AM,35.1,32.0,89,30.12,10.0,Calm,Calm,-,0.00,Rain,Light Rain,0,2012-10-28 06:55:00
1:55 AM,34.0,30.9,89,30.10,10.0,NW,3.5,-,0.00,,Overcast,320,2012-10-28 07:55:00
2:55 AM,35.1,32.0,89,30.09,10.0,Calm,Calm,-,0.00,,Overcast,0,2012-10-28 08:55:00
3:41 AM,33.8,32.0,93,30.05,10.0,Calm,Calm,-,0.00,,Overcast,0,2012-10-28 09:41:00
3:55 AM,35.1,32.0,89,30.09,10.0,WNW,3.5,-,0.00,,Overcast,290,2012-10-28 09:55:00
4:55 AM,35.1,32.0,89,30.09,10.0,Calm,Calm,-,N/A,,Overcast,0,2012-10-28 10:55:00
5:55 AM,35.1,32.0,89,30.10,10.0,Calm,Calm,-,N/A,,Overcast,0,2012-10-28 11:55:00
6:55 AM,35.1,32.0,89,30.09,10.0,Calm,Calm,-,N/A,,Overcast,0,2012-10-28 12:55:00
7:55 AM,34.0,32.0,92,30.09,10.0,Calm,Calm,-,N/A,,Overcast,0,2012-10-28 13:55:00
9:55 AM,37.0,33.1,86,30.09,10.0,Calm,Calm,-,N/A,,Overcast,0,2012-10-28 15:55:00
10:55 AM,41.0,35.1,79,30.06,10.0,Calm,Calm,-,N/A,,Overcast,0,2012-10-28 16:55:00
11:55 AM,42.1,36.0,79,30.06,10.0,Calm,Calm,-,N/A,,Overcast,0,2012-10-28 17:55:00
12:55 PM,46.9,37.0,68,30.04,10.0,Calm,Calm,-,N/A,,Scattered Clouds,0,2012-10-28 18:55:00
1:55 PM,52.0,39.0,61,30.00,10.0,Calm,Calm,-,N/A,,Mostly Cloudy,0,2012-10-28 19:55:00
2:55 PM,59.0,34.0,39,29.95,10.0,SSW,13.8,-,N/A,,Overcast,200,2012-10-28 20:55:00
3:55 PM,52.0,39.9,63,29.99,10.0,West,11.5,-,0.00,Rain,Light Rain,280,2012-10-28 21:55:00
4:55 PM,48.9,44.1,83,30.02,10.0,North,5.8,-,0.02,Rain,Light Rain,350,2012-10-28 22:55:00
5:55 PM,48.9,42.1,77,30.02,10.0,Calm,Calm,-,0.01,,Overcast,0,2012-10-28 23:55:00
6:55 PM,48.0,43.0,83,30.03,10.0,Calm,Calm,-,N/A,,Overcast,0,2012-10-29 00:55:00
7:55 PM,46.9,42.1,83,30.05,10.0,Calm,Calm,-,0.00,Rain,Light Rain,0,2012-10-29 01:55:00
8:55 PM,45.0,42.1,90,30.05,10.0,WNW,3.5,-,0.01,Rain,Light Rain,300,2012-10-29 02:55:00
9:55 PM,45.0,41.0,86,30.05,10.0,Calm,Calm,-,0.00,,Overcast,0,2012-10-29 03:55:00
10:55 PM,44.1,41.0,89,30.04,10.0,Calm,Calm,-,0.00,,Overcast,0,2012-10-29 04:55:00
11:55 PM,42.1,39.0,89,30.04,10.0,Calm,Calm,-,N/A,,Overcast,0,2012-10-29 05:55:00